Track STARLINK-3567 now! 10-day predictions STARLINK-3567 is classified as:
1 51871U 22022V 22184.91667824 -.00048286 00000-0 -30364-2 0 9998 2 51871 53.2186 286.0400 0001852 36.4658 191.8247 15.08837384 1300